Theta_e
321 321 322 321 320 320 319 320 320 320 320 320 319 315 315 316 310 304 300 306 310 317 317 306 305 308 309 306 307 305 293 290 292 292 293 296 295 297 297 296 300 301 300 307 314
321 321 321 321 320 320 319 319 319 319 319 318 318 314 315 315 304 300 306 312 314 316 306 302 302 306 302 303 302 297 292 293 294 293 293 295 294 295 294 296 297 299 302 311 312
320 321 321 321 320 319 318 318 319 319 318 317 316 314 315 309 300 297 310 312 313 312 306 303 303 304 300 301 299 297 294 294 294 295 294 295 293 295 294 293 294 295 301 308 308
320 320 321 320 319 318 317 318 318 318 317 316 314 314 313 305 292 300 310 310 311 307 304 302 301 298 296 295 299 293 296 295 296 294 294 293 294 293 293 292 297 296 303 306 306
320 320 320 319 319 317 317 317 318 318 316 315 314 314 306 298 295 303 312 311 306 305 301 300 297 297 294 295 296 294 294 295 295 294 293 294 292 290 291 295 296 297 299 302 304
320 319 319 319 318 316 316 317 317 318 315 313 314 311 302 294 301 304 304 305 304 303 301 300 297 297 295 294 293 294 294 293 294 294 294 291 290 290 291 292 293 295 295 297 301
320 319 319 318 318 316 315 316 316 315 313 312 312 301 299 293 301 303 305 304 304 303 301 301 301 298 297 293 296 294 290 291 292 294 293 292 289 289 291 293 291 294 294 295 296
319 318 318 317 317 315 315 315 315 313 312 313 310 301 293 301 300 302 304 304 305 305 302 302 303 299 297 296 294 290 289 285 291 293 293 291 287 291 291 291 293 293 294 295 296
318 317 317 316 315 315 316 314 312 312 309 308 305 301 292 304 299 302 303 300 303 304 303 302 301 296 296 291 287 288 286 286 288 292 291 290 288 292 293 293 292 293 293 294 295
318 317 317 315 313 315 313 312 315 308 304 299 298 298 297 294 299 300 303 302 301 302 302 300 296 292 291 289 284 286 283 287 286 288 289 288 289 292 292 292 289 290 291 292 293
318 318 315 314 313 313 308 308 304 300 296 291 291 294 295 299 301 300 301 299 301 299 292 294 293 287 287 287 288 288 286 285 288 289 285 287 286 288 289 289 289 289 290 291 292
318 315 313 313 312 311 307 301 298 299 291 295 294 295 296 297 295 297 301 296 293 290 294 293 287 289 291 291 289 288 284 284 287 288 284 285 283 287 288 287 288 288 288 290 291
315 313 311 311 312 308 302 299 304 304 295 292 294 295 295 297 293 293 297 296 289 288 289 288 287 291 290 287 287 284 282 281 281 285 284 282 281 284 287 288 289 288 289 290 290
313 310 309 309 308 305 301 305 305 304 286 289 292 294 297 297 292 298 297 294 292 286 288 286 290 289 287 284 285 283 284 284 281 279 276 281 274 281 285 285 286 287 286 287 288
311 309 309 311 305 302 302 305 305 303 280 289 292 299 297 294 294 294 297 295 289 285 289 283 284 284 282 283 285 280 284 281 279 276 275 276 272 280 285 283 283 284 286 287 288
309 309 309 308 306 303 306 305 303 286 278 284 291 291 290 292 292 294 294 295 293 288 286 283 288 285 284 286 284 285 280 279 278 277 269 269 271 276 280 282 282 285 285 287 287
308 307 305 306 300 306 306 303 286 281 286 283 284 289 286 285 289 289 288 287 284 281 282 282 281 285 286 281 284 281 276 272 271 270 272 265 271 277 281 283 284 284 285 286 287
307 306 305 305 308 306 303 288 281 283 282 289 288 286 284 285 284 286 284 282 285 283 280 277 275 280 284 280 279 278 276 272 265 268 271 267 266 276 282 285 285 286 285 286 286
309 305 305 302 303 303 294 284 282 284 288 285 286 282 282 284 283 283 282 282 283 283 280 276 276 281 281 283 280 278 273 276 267 262 265 273 276 279 281 280 283 283 283 283 285
305 302 299 302 302 301 286 284 282 289 289 288 283 283 279 280 280 280 280 284 283 283 283 280 273 277 280 281 279 278 278 271 271 263 263 270 268 273 273 272 276 280 278 280 283
306 294 301 302 302 290 284 282 283 289 290 285 282 280 281 280 280 281 279 283 285 283 283 280 276 274 278 273 273 272 272 273 273 274 267 265 272 279 273 277 274 273 277 274 275
302 286 301 300 287 284 283 282 287 288 291 288 286 284 282 281 281 277 279 281 286 283 280 281 280 271 273 279 281 278 277 278 270 266 269 270 269 275 273 275 274 272 275 276 275
297 295 301 299 283 283 283 282 286 286 285 284 283 285 285 277 275 280 280 286 286 283 281 281 275 268 273 274 276 273 278 278 274 276 268 267 270 272 271 270 271 271 272 274 275
296 285 287 290 291 286 282 282 281 287 286 285 284 285 282 276 280 275 280 284 284 284 287 286 280 272 271 271 272 271 276 278 274 268 272 272 271 270 270 271 270 271 272 272 272
295 285 287 283 285 285 284 283 282 280 285 286 282 283 281 274 278 272 280 282 284 287 283 282 270 276 275 276 273 273 271 275 274 275 273 275 276 272 274 275 275 273 272 271 273
292 289 289 284 285 284 283 282 281 282 283 282 279 282 283 275 280 277 280 281 281 282 282 282 271 273 269 277 276 272 276 275 276 277 276 277 275 275 269 269 269 271 272 273 273
293 292 290 286 285 283 284 282 282 283 284 285 284 282 281 282 285 284 285 284 282 280 280 277 273 269 264 271 270 267 270 275 275 273 276 272 275 269 268 270 271 272 272 272 271
Wind_Speed
11 13 14 13 14 13 14 14 13 13 12 10 8 7 7 8 7 5 5 6 8 14 11 7 4 3 4 2 3 2 3 4 3 2 5 4 3 3 2 2 4 6 5 6 13
11 12 14 14 14 15 15 15 14 13 11 9 6 7 7 8 7 8 4 9 9 9 6 4 3 3 2 1 2 3 2 6 7 7 7 4 4 5 3 6 5 7 5 13 11
11 11 13 14 15 15 16 15 14 12 11 7 5 6 7 7 5 5 9 9 8 7 5 5 7 3 2 0 3 2 2 5 8 8 8 6 3 3 5 3 8 4 11 11 9
9 11 12 13 14 15 16 15 15 11 8 7 6 6 6 4 2 5 9 8 7 6 4 3 4 3 2 3 4 2 4 4 5 4 5 5 7 5 4 2 7 8 11 9 9
8 9 11 11 14 15 16 16 14 9 6 6 6 6 4 4 5 8 9 6 5 3 3 2 5 4 3 2 2 2 5 3 3 2 4 6 5 3 6 6 8 8 3 9 9
7 8 9 11 13 15 15 16 13 7 5 5 6 5 2 1 4 9 6 5 7 5 1 3 5 4 4 4 2 4 3 4 2 3 1 4 4 4 4 5 6 3 5 5 7
6 7 9 11 13 15 16 16 12 7 5 4 4 5 4 3 3 6 5 3 5 6 1 4 6 4 2 4 0 3 3 3 3 2 1 3 3 6 4 3 3 5 2 2 1
6 7 8 10 12 14 15 14 9 6 4 4 3 3 3 1 5 8 9 1 3 3 5 4 7 4 4 4 3 3 2 3 3 7 2 3 4 5 2 2 5 7 6 4 4
6 6 6 9 12 14 13 13 6 5 3 3 2 2 4 1 3 5 5 5 5 2 2 2 3 2 1 3 2 1 2 3 5 3 4 3 2 4 5 6 3 5 2 3 7
6 5 5 9 11 13 13 6 5 5 3 2 1 1 3 3 3 4 3 4 3 0 2 2 2 2 1 3 1 2 3 2 3 4 5 6 8 7 8 8 6 9 9 8 8
7 3 5 8 11 12 7 2 0 1 7 4 2 2 3 5 3 5 3 5 2 2 1 2 2 3 7 5 3 6 4 5 5 3 4 4 6 5 7 9 8 8 8 8 8
5 3 2 5 10 9 1 3 2 1 4 1 2 4 1 1 1 8 9 1 6 3 1 3 4 5 2 3 3 4 3 2 3 1 3 6 8 8 5 6 6 7 8 8 7
7 1 2 5 8 2 4 3 2 3 2 3 2 3 2 5 4 7 8 1 5 4 3 3 4 1 2 6 4 5 3 4 2 7 2 6 3 7 5 7 8 8 8 8 8
6 2 3 8 1 0 2 2 3 3 5 4 2 3 2 2 3 3 3 1 4 2 5 5 1 2 4 5 6 2 5 3 3 5 3 4 3 6 8 7 8 7 8 7 8
5 2 5 10 2 1 3 3 2 2 0 2 3 2 3 3 3 2 2 2 4 2 3 1 4 5 5 3 3 2 2 3 2 1 4 2 4 5 11 7 8 6 7 8 8
3 2 5 2 3 3 3 4 2 6 2 3 3 2 2 4 2 3 1 4 2 3 6 3 1 4 3 4 3 3 1 2 2 1 2 3 4 5 5 4 7 6 7 7 7
11 11 5 2 2 5 5 2 5 3 2 4 3 3 2 5 3 5 3 2 2 3 2 2 2 3 3 3 3 0 1 2 4 3 5 4 2 9 5 6 10 8 7 7 8
9 5 5 5 3 4 2 6 4 2 3 1 1 1 3 5 2 4 1 1 2 2 3 3 5 2 5 3 1 1 2 5 5 1 3 3 7 6 7 7 9 8 7 8 8
5 1 2 5 5 3 4 4 1 1 2 1 1 4 4 1 1 3 2 2 3 4 4 2 2 3 4 2 2 2 1 2 6 1 4 5 4 1 6 5 8 7 7 6 7
1 1 2 5 5 1 6 3 0 3 4 3 1 1 1 2 2 2 1 2 4 2 4 2 2 1 1 1 3 1 1 4 2 1 5 5 5 7 6 6 4 5 2 4 5
3 3 2 5 3 6 3 2 1 2 2 2 2 1 0 1 1 1 0 2 3 3 1 2 4 1 1 4 6 1 1 1 2 3 5 3 8 2 7 11 10 5 1 2 4
3 3 4 4 5 3 2 1 3 1 0 1 3 3 1 2 1 2 2 2 4 2 1 2 1 3 6 3 5 3 2 5 5 6 2 2 11 5 2 9 9 6 5 3 3
2 2 1 2 3 2 1 1 1 2 1 2 2 3 3 0 3 1 2 3 1 2 3 2 1 3 5 1 2 2 4 1 2 1 6 4 9 3 4 3 4 6 5 5 4
1 3 4 5 2 4 2 1 0 3 2 1 2 1 2 1 2 2 2 2 2 1 1 1 2 6 5 6 2 3 4 6 5 2 4 12 8 5 7 8 6 6 6 6 6
3 0 4 2 4 3 1 4 2 1 2 2 1 3 3 1 1 3 3 2 3 4 1 1 4 2 5 6 5 7 6 9 13 13 9 19 16 6 14 14 10 7 4 5 7
3 3 2 2 2 2 1 3 4 2 4 2 3 1 6 5 5 5 4 5 6 5 5 3 3 1 5 4 4 9 12 14 18 20 18 23 28 6 2 6 3 7 8 8 8
0 1 1 1 0 1 0 1 2 4 2 3 2 1 3 3 5 4 5 4 3 5 5 5 5 3 7 3 6 11 11 21 9 5 15 15 14 5 3 6 8 9 8 9 7
Wind_Direction
5 4 3 2 356 355 351 350 348 346 340 332 328 329 328 312 314 244 47 342 318 322 317 282 257 210 247 145 277 283 290 265 264 54 73 91 343 86 353 322 46 46 54 94 126
1 358 358 358 355 350 351 348 346 344 343 338 330 329 331 324 283 71 2 335 326 323 300 278 184 194 176 150 207 253 266 17 15 42 24 56 352 359 338 183 137 110 100 112 129
354 355 356 353 352 351 348 347 341 344 342 350 338 332 331 320 273 66 357 341 331 301 274 305 304 262 219 204 166 200 318 357 50 28 360 352 294 48 309 298 28 85 140 140 150
350 347 347 351 350 349 347 347 342 343 348 351 342 329 331 267 335 25 352 332 320 306 268 211 225 222 231 210 95 278 60 12 25 32 348 2 325 304 224 92 76 52 139 147 170
333 339 339 348 349 348 347 346 345 345 353 353 333 327 289 221 55 346 347 337 273 277 308 265 238 260 253 100 119 245 101 53 65 20 360 334 275 303 293 297 122 98 58 162 180
317 329 335 345 349 346 349 345 343 344 350 348 338 307 277 235 304 353 345 349 14 301 147 272 352 12 37 49 301 10 52 81 52 46 40 333 306 45 87 41 76 109 190 208 185
303 327 337 344 345 344 350 338 335 342 348 351 346 273 56 63 9 346 357 12 337 357 45 22 347 283 108 129 207 139 162 181 82 10 355 326 261 220 170 119 276 129 135 78 31
292 317 331 340 338 344 339 334 325 324 338 330 303 290 63 30 326 14 349 101 46 28 51 358 334 95 354 127 168 217 239 188 60 339 156 276 124 104 113 232 130 130 134 142 169
272 306 333 341 345 333 331 333 324 301 343 295 275 301 85 192 10 343 33 357 298 67 56 274 309 53 198 225 175 200 264 226 132 40 302 236 356 168 187 196 310 347 83 100 42
252 286 337 343 343 330 329 278 311 323 309 259 256 173 35 13 341 306 26 324 332 303 210 235 200 167 220 28 177 238 222 209 58 9 333 278 269 344 19 26 20 64 51 46 44
235 278 3 341 338 342 355 356 26 128 42 48 14 334 51 324 230 37 356 318 267 294 26 28 67 73 50 15 332 330 6 9 92 32 329 295 335 16 8 35 43 58 70 51 41
211 151 346 323 325 323 336 30 72 19 100 75 113 110 84 303 257 37 349 336 66 66 148 38 79 46 341 321 334 8 38 21 97 26 345 334 309 69 58 70 60 58 64 62 39
142 140 347 311 313 22 62 49 336 322 259 75 51 34 335 320 46 2 352 34 95 40 49 85 47 331 334 21 7 47 19 29 351 329 206 305 237 120 105 83 68 44 53 55 60
133 130 341 305 256 9 67 17 315 308 81 350 75 56 296 307 77 346 12 16 57 136 42 62 61 35 52 85 2 127 356 36 358 14 239 26 256 161 153 127 83 52 48 47 50
143 128 34 2 56 25 26 319 318 249 97 351 36 308 294 44 316 66 268 298 68 117 105 77 19 38 55 39 326 116 15 42 65 312 33 325 80 216 147 128 88 72 61 53 55
68 19 338 348 74 355 319 306 258 42 43 343 318 348 36 18 58 296 147 53 7 100 55 99 205 30 50 85 36 116 339 38 221 139 15 235 113 233 186 124 110 87 71 51 57
72 59 50 13 30 336 320 257 46 80 314 322 8 14 109 15 39 13 2 63 13 53 23 175 78 112 335 182 186 179 28 337 353 2 233 300 353 241 127 92 121 111 84 65 48
76 71 76 48 355 322 299 48 60 197 235 235 312 116 51 357 37 329 340 157 99 332 119 180 310 36 344 32 108 51 127 149 217 227 285 351 240 265 115 104 102 90 68 54 44
338 45 66 4 342 294 69 55 166 265 18 271 186 50 335 143 13 358 333 30 58 48 159 90 261 121 41 1 44 197 50 13 95 44 49 218 277 129 142 165 110 84 65 38 26
14 119 61 328 329 328 74 125 138 356 332 313 58 327 267 295 319 79 201 64 119 71 140 36 315 327 134 243 39 130 132 58 335 72 278 279 270 236 187 222 135 105 55 11 8
267 49 21 332 293 50 96 191 244 178 355 48 51 128 187 201 271 270 18 87 36 118 56 90 106 314 43 208 179 123 237 340 84 155 191 273 260 308 215 179 151 188 227 273 311
331 42 2 326 39 38 105 149 289 59 26 42 334 44 324 64 254 284 320 80 6 139 16 87 25 253 213 70 22 359 300 190 136 261 225 159 271 324 187 134 140 192 224 260 257
72 16 85 325 96 53 7 325 43 46 51 5 90 40 65 54 5 360 7 44 342 345 7 82 301 336 317 16 49 246 204 194 52 7 215 152 260 344 26 85 180 182 237 259 274
104 22 339 34 303 126 145 44 82 350 323 61 23 56 170 83 168 270 240 119 110 50 46 14 276 186 209 210 173 238 216 198 169 180 222 227 284 226 235 206 214 233 243 256 262
12 203 164 4 342 85 328 150 144 171 297 187 338 241 175 162 241 231 245 137 179 176 79 111 222 296 235 227 187 217 198 202 211 220 199 265 230 232 206 201 200 204 230 262 261
126 131 205 155 265 215 155 211 178 187 152 225 174 257 181 192 205 198 181 201 196 160 182 165 264 83 280 246 264 265 224 220 227 233 248 261 273 211 152 95 149 215 222 230 233
253 114 275 152 179 16 60 111 218 134 182 18 318 279 265 290 324 342 320 339 335 171 198 162 159 139 262 320 318 289 213 213 209 192 218 234 245 163 168 183 201 223 219 237 242